Location: Unspecified
(0.0000°N, 0.0000°E)
Time: 23:15:44
(UTC+00:00)

Kosmos-2004 - Pass Details

Date: 19 May 2026
Orbit: 969 x 1012 km, 83.0° (Epoch: 6 June)

Event Time Altitude Azimuth Distance (km) Brightness Sun altitude
Exits shadow 04:43:39 - 194° (SSW) 3,182 8.4 -17.1°
Reaches altitude 10° 04:44:55 10° 196° (SSW) 2,711 8.0 -16.8°
Maximum altitude 04:50:58 56° 273° (W) 1,139 6.0 -15.4°
Drops below altitude 10° 04:57:02 10° 350° (N) 2,715 8.5 -14.0°
Sets 04:59:36 0° 355° (N) 3,665 9.2 -13.4°
